Ogden Hill AFB, UT

12:07 AM MDT on May 29, 2017 (GMT -0600)
Hill Air Force Base

Weather History for KHIF - February, 2014

Change the Weather History Date:

Friday, February 14, 2014

  Actual Average Record
Temperature  
Mean Temperature 45 °F -  
Max Temperature 51 °F 37 °F 59 °F (2015)
Min Temperature 39 °F 23 °F 8 °F (2004)
Degree Days  
Heating Degree Days 20    
Moisture  
Dew Point 27 °F    
Average Humidity 52    
Maximum Humidity 63    
Minimum Humidity 31    
Precipitation  
Precipitation 0.04 in - - ()
Sea Level Pressure  
Sea Level Pressure 30.04 in    
Wind  
Wind Speed 7 mph (SSE)    
Max Wind Speed 15 mph    
Max Gust Speed 22 mph    
Visibility 10 miles    
Events Rain    
Averages and records for this station are not official NWS values.
T = Trace of Precipitation, MM = Missing Value Source: NWS Daily Summary

Daily Weather History Graph

Daily Weather History Graph

Search for Another Location

Airport or City:

Trip Planner

Search our weather history database for the weather conditions in past years. The results will help you decide how hot, cold, wet, or windy it might be!

Date:

Astronomy

Feb. 14, 2014 Rise Set
Actual Time 7:23 AM MST 6:01 PM MST
Civil Twilight 6:55 AM MST 6:29 PM MST
Nautical Twilight 6:23 AM MST 7:01 PM MST
Astronomical Twilight 5:51 AM MST 7:33 PM MST
Moon 6:08 PM MST (2/14) 6:52 AM MST (2/14)
Length of Visible Light 11h 34m
Length of Day
10h 37m
Full, 100% of the Moon is Illuminated
Feb 14
Full
Feb 14
Full
Feb 22
Last Quarter
Mar 1
New
Mar 8
First Quarter

Hourly Weather History & Observations

Time (MST) Temp. Windchill Dew Point Humidity Pressure Visibility Wind Dir Wind Speed Gust Speed Precip Events Conditions
12:58 AM 43.0 °F - 18.0 °F 37% 30.09 in 10.0 mi Calm Calm - N/A   Overcast
1:53 AM 41.0 °F - 19.4 °F 42% 30.13 in 10.0 mi NNE 2.3 mph - N/A   Overcast
2:58 AM 39.4 °F 35.2 °F 26.2 °F 59% 30.07 in 10.0 mi SSE 5.8 mph - N/A   Overcast
3:17 AM 39.2 °F 35.0 °F 26.6 °F 61% 30.11 in 10.0 mi South 5.8 mph - N/A   Overcast
3:22 AM 39.2 °F 35.0 °F 26.6 °F 61% 30.11 in 10.0 mi SSE 5.8 mph - N/A   Overcast
3:27 AM 39.2 °F 35.0 °F 26.6 °F 61% 30.11 in 10.0 mi SSE 5.8 mph - N/A   Overcast
3:37 AM 39.2 °F 33.6 °F 26.6 °F 61% 30.10 in 10.0 mi SSE 8.1 mph - N/A   Overcast
3:42 AM 39.2 °F 33.6 °F 26.6 °F 61% 30.10 in 10.0 mi SSE 8.1 mph - N/A   Overcast
3:47 AM 39.2 °F 33.6 °F 26.6 °F 61% 30.10 in 10.0 mi SSE 8.1 mph - N/A   Overcast
3:52 AM 39.2 °F 33.6 °F 26.6 °F 61% 30.09 in 10.0 mi SSE 8.1 mph - N/A   Overcast
3:58 AM 39.2 °F 33.6 °F 26.8 °F 61% 30.05 in 10.0 mi SSE 8.1 mph - N/A   Overcast
4:08 AM 39.2 °F 35.0 °F 26.6 °F 61% 30.10 in 10.0 mi SE 5.8 mph - N/A   Overcast
4:43 AM 39.2 °F 35.0 °F 26.6 °F 61% 30.09 in 10.0 mi ESE 5.8 mph - N/A   Overcast
4:58 AM 39.7 °F 35.6 °F 24.4 °F 54% 30.05 in 10.0 mi SE 5.8 mph - N/A   Mostly Cloudy
5:13 AM 39.2 °F 35.9 °F 23.0 °F 52% 30.09 in 10.0 mi SE 4.6 mph - N/A   Scattered Clouds
5:23 AM 41.0 °F 37.1 °F 24.8 °F 53% 30.09 in 10.0 mi South 5.8 mph - N/A   Mostly Cloudy
5:58 AM 39.4 °F 33.8 °F 27.5 °F 62% 30.05 in 10.0 mi SE 8.1 mph - N/A   Overcast
6:23 AM 39.2 °F 33.6 °F 26.6 °F 61% 30.09 in 10.0 mi South 8.1 mph - N/A   Overcast
6:58 AM 40.3 °F 33.9 °F 27.1 °F 59% 30.04 in 10.0 mi SE 10.4 mph - N/A   Overcast
7:03 AM 39.2 °F 34.2 °F 26.6 °F 61% 30.08 in 10.0 mi ESE 6.9 mph - N/A   Overcast
7:42 AM 41.0 °F 34.3 °F 24.8 °F 53% 30.06 in 10.0 mi South 11.5 mph - N/A Rain Light Rain
7:58 AM 41.2 °F 36.0 °F 26.1 °F 55% 30.04 in 10.0 mi SSW 8.1 mph - 0.00 in Rain Light Rain
8:19 AM 41.0 °F 36.4 °F 26.6 °F 57% 30.08 in 5.0 mi SSE 6.9 mph - N/A Rain Light Rain
8:43 AM 41.0 °F 34.7 °F 28.4 °F 61% 30.09 in 5.0 mi SSE 10.4 mph - N/A Rain Light Rain
8:58 AM 40.6 °F 35.4 °F 28.9 °F 63% 30.05 in 5.0 mi SSE 8.1 mph - 0.00 in Rain Light Rain
9:58 AM 42.6 °F 37.2 °F 28.8 °F 58% 30.05 in 6.0 mi South 9.2 mph - 0.01 in Rain Light Rain
10:58 AM 43.7 °F 37.7 °F 28.8 °F 56% 30.04 in 10.0 mi South 11.5 mph - 0.00 in   Overcast
11:58 AM 46.0 °F 40.2 °F 27.1 °F 48% 30.03 in 10.0 mi South 12.7 mph - N/A   Overcast
12:11 PM 46.4 °F 40.4 °F 28.4 °F 50% 30.07 in 10.0 mi South 13.8 mph - N/A Rain Light Rain
12:58 PM 45.5 °F 39.9 °F 29.5 °F 54% 30.02 in 10.0 mi South 11.5 mph - 0.01 in Rain Light Rain
1:37 PM 46.4 °F 42.4 °F 30.2 °F 53% 30.04 in 10.0 mi SSE 8.1 mph - N/A   Mostly Cloudy
1:58 PM 46.4 °F 41.9 °F 30.2 °F 53% 29.98 in 10.0 mi SSE 9.2 mph - 0.00 in   Overcast
2:06 PM 48.2 °F - 30.2 °F 50% 30.03 in 10.0 mi SSE 9.2 mph - N/A Rain Light Rain
2:55 PM 48.2 °F - 28.4 °F 46% 30.03 in 10.0 mi South 6.9 mph - N/A   Mostly Cloudy
2:58 PM 48.6 °F - 28.8 °F 46% 29.99 in 10.0 mi South 6.9 mph - 0.01 in   Mostly Cloudy
3:02 PM 48.2 °F - 30.2 °F 50% 30.03 in 10.0 mi South 13.8 mph 21.9 mph N/A Rain Light Rain
3:17 PM 48.2 °F - 28.4 °F 46% 30.03 in 10.0 mi South 10.4 mph - N/A Rain Light Rain
3:20 PM 48.2 °F - 28.4 °F 46% 30.03 in 10.0 mi South 6.9 mph - N/A   Mostly Cloudy
3:25 PM 48.2 °F - 28.4 °F 46% 30.03 in 10.0 mi South 8.1 mph - N/A   Overcast
3:30 PM 48.2 °F - 28.4 °F 46% 30.03 in 10.0 mi South 8.1 mph - N/A   Overcast
3:44 PM 48.2 °F - 28.4 °F 46% 30.03 in 10.0 mi SSE 5.8 mph - N/A Rain Light Rain
3:58 PM 46.8 °F - 30.0 °F 52% 30.00 in 10.0 mi SE 10.4 mph - 0.01 in Rain Light Rain
4:08 PM 48.2 °F - 28.4 °F 46% 30.03 in 10.0 mi ESE 6.9 mph - N/A Rain Light Rain
4:11 PM 48.2 °F - 28.4 °F 46% 30.03 in 10.0 mi ESE 5.8 mph - N/A   Overcast
4:26 PM 48.2 °F - 28.4 °F 46% 30.02 in 10.0 mi East 6.9 mph - N/A   Mostly Cloudy
4:58 PM 47.3 °F - 28.0 °F 47% 29.98 in 10.0 mi ESE 4.6 mph - 0.00 in   Overcast
5:38 PM 46.4 °F 43.5 °F 28.4 °F 50% 30.01 in 10.0 mi East 5.8 mph - N/A   Scattered Clouds
5:43 PM 46.4 °F 43.5 °F 26.6 °F 46% 30.01 in 10.0 mi East 5.8 mph - N/A   Mostly Cloudy
5:58 PM 46.2 °F 44.1 °F 28.2 °F 50% 29.98 in 10.0 mi ESE 4.6 mph - N/A   Mostly Cloudy
6:58 PM 46.4 °F 44.3 °F 27.0 °F 47% 29.96 in 10.0 mi SE 4.6 mph - N/A   Overcast
7:58 PM 46.8 °F - 26.8 °F 46% 29.94 in 10.0 mi South 11.5 mph - N/A   Overcast
8:58 PM 48.9 °F - 25.3 °F 40% 29.94 in 10.0 mi South 13.8 mph - N/A   Overcast
9:58 PM 50.0 °F - 23.4 °F 35% 29.93 in 10.0 mi South 15.0 mph - N/A   Overcast
10:58 PM 51.4 °F - 21.7 °F 31% 29.91 in 10.0 mi SSE 10.4 mph - N/A   Overcast
11:58 PM 51.4 °F - 21.6 °F 31% 29.89 in 10.0 mi South 13.8 mph - N/A   Overcast